Weather History for Hill City, KS

Change the Weather History Date:

Wednesday, January 29, 2014

  Actual Average Record
Temperature  
Mean Temperature 31 °F 30 °F  
Max Temperature 57 °F 42 °F 72 °F (2008)
Min Temperature 5 °F 17 °F -11 °F (1916)
Degree Days  
Heating Degree Days 34    
Moisture  
Dew Point 7 °F    
Average Humidity 44    
Maximum Humidity 80    
Minimum Humidity 12    
Precipitation  
Precipitation 0.00 in 0.02 in 0.04 in (2013)
Month to date precipitation 0.03 0.40  
Year to date precipitation 0.03 0.40  
Sea Level Pressure  
Sea Level Pressure 29.96 in    
Wind  
Wind Speed 6 mph (SW)    
Max Wind Speed 16 mph    
Max Gust Speed 25 mph    
Visibility 10 miles    
Events      
T = Trace of Precipitation, MM = Missing Value Source: NWS Daily Summary

Daily Weather History Graph

Daily Weather History Graph

Search for Another Location

Airport:

Trip Planner

Search our weather history database for the weather conditions in past years. The results will help you decide how hot, cold, wet, or windy it might be!

Date:

Astronomy

Jan. 29, 2014 Rise Set
Actual Time 7:49 AM CST 5:56 PM CST
Civil Twilight 7:20 AM CST 6:24 PM CST
Nautical Twilight 6:48 AM CST 6:57 PM CST
Astronomical Twilight 6:16 AM CST 7:28 PM CST
Moon 6:27 AM CST 4:57 PM CST
Length of Visible Light 11h 04m
Length of Day
10h 07m
Waning Crescent, 2% of the Moon is Illuminated
Jan 29
Waning Crescent
Jan 30
New
Feb 6
First Quarter
Feb 14
Full
Feb 22
Last Quarter

Hourly Weather History & Observations

Time (CST) Temp. Windchill Dew Point Humidity Pressure Visibility Wind Dir Wind Speed Gust Speed Precip Events Conditions
12:53 AM 12.0 °F 5.9 °F 3.9 °F 70% 30.26 in 10.0 mi WSW 3.5 mph - N/A   Clear
1:53 AM 10.0 °F 3.6 °F 3.9 °F 76% 30.23 in 10.0 mi West 3.5 mph - N/A   Clear
2:53 AM 5.0 °F -2.1 °F -0.0 °F 80% 30.22 in 10.0 mi Variable 3.5 mph - N/A   Clear
3:53 AM 10.0 °F - 3.0 °F 73% 30.19 in 10.0 mi Calm Calm - N/A   Clear
4:53 AM 7.0 °F 0.1 °F 1.0 °F 77% 30.17 in 10.0 mi WSW 3.5 mph - N/A   Clear
5:53 AM 10.0 °F 0.4 °F 3.0 °F 73% 30.15 in 10.0 mi WSW 5.8 mph - N/A   Clear
6:53 AM 10.9 °F 2.9 °F 3.0 °F 70% 30.15 in 10.0 mi SW 4.6 mph - N/A   Clear
7:53 AM 10.0 °F 3.6 °F 1.9 °F 70% 30.14 in 10.0 mi WSW 3.5 mph - N/A   Clear
8:53 AM 16.0 °F 8.8 °F 6.1 °F 65% 30.12 in 10.0 mi WSW 4.6 mph - N/A   Clear
9:53 AM 25.0 °F 18.1 °F 10.0 °F 53% 30.10 in 10.0 mi West 5.8 mph - N/A   Clear
10:53 AM 37.0 °F 32.4 °F 10.9 °F 34% 30.06 in 10.0 mi West 5.8 mph - N/A   Clear
11:53 AM 45.0 °F 41.2 °F 10.0 °F 24% 30.02 in 10.0 mi WSW 6.9 mph - N/A   Clear
12:53 PM 51.1 °F - 6.1 °F 16% 29.96 in 10.0 mi Variable 5.8 mph - N/A   Clear
1:53 PM 55.0 °F - 3.0 °F 12% 29.91 in 10.0 mi WSW 13.8 mph 17.3 mph N/A   Clear
2:53 PM 55.9 °F - 5.0 °F 13% 29.88 in 10.0 mi WSW 13.8 mph 20.7 mph N/A   Clear
3:53 PM 57.0 °F - 5.0 °F 12% 29.85 in 10.0 mi WSW 12.7 mph - N/A   Clear
4:53 PM 54.0 °F - 7.0 °F 15% 29.83 in 10.0 mi SW 12.7 mph - N/A   Clear
5:53 PM 46.9 °F - 7.0 °F 20% 29.81 in 10.0 mi SSW 5.8 mph - N/A   Clear
6:53 PM 42.1 °F 36.6 °F 9.0 °F 26% 29.79 in 10.0 mi SSW 9.2 mph - N/A   Clear
7:53 PM 41.0 °F 34.3 °F 18.0 °F 40% 29.76 in 10.0 mi SSW 11.5 mph - N/A   Clear
8:53 PM 39.9 °F 31.4 °F 21.9 °F 49% 29.72 in 10.0 mi SSW 16.1 mph 23.0 mph N/A   Clear
9:53 PM 41.0 °F 32.8 °F 16.0 °F 36% 29.68 in 10.0 mi SSW 16.1 mph 23.0 mph N/A   Clear
10:53 PM 41.0 °F 33.1 °F 12.0 °F 31% 29.60 in 10.0 mi SSW 15.0 mph 25.3 mph N/A   Clear
11:53 PM 39.9 °F 32.5 °F 12.0 °F 32% 29.55 in 10.0 mi SSW 12.7 mph 20.7 mph N/A   Clear